Regional Weather Roundup
Issued by NWS

Home | Current Version | Previous Version | Graphics & Text | Print | Product List | Glossary On
Versions: 1 2 3 4 5 6 7 8 9 10 11 12 13 14 15 16 17 18 19 20 21 22 23 24 25 26 27 28 29 30 31 32 33 34 35 36 37 38 39 40 41 42 43 44 45 46 47 48 49 50
000
ASUS43 KMPX 251010
RWRMN
WEATHER ROUNDUP FOR MINNESOTA
NATIONAL WEATHER SERVICE TWIN CITIES/CHANHASSEN MN
500 AM CDT TUE APR 25 2017


NOTE: "FAIR" INDICATES FEW OR NO CLOUDS BELOW 12,000 FEET WITH NO
SIGNIFICANT WEATHER AND/OR OBSTRUCTIONS TO VISIBILITY. N/A MEANS
CURRENT SKY AND/OR WEATHER CONDITIONS ARE NOT AVAILABLE.

MNZ060>063-068>070-251100-
   Twin Cities Metro

CITY           SKY/WX    TMP DP  RH WIND       PRES   REMARKS
TWIN CITIES    CLOUDY    60  36  40 SE7       29.49S
ST PAUL        CLOUDY    58  40  51 S7        29.49S
CRYSTAL        CLOUDY    59  36  42 SE6       29.47S
BLAINE         PTCLDY    61  37  41 S9        29.48S
LAKEVILLE      CLOUDY    57  37  47 CALM      29.49R
EDEN PRAIRIE   CLOUDY    60  37  42 S9        29.47S
SOUTH ST PAUL  CLOUDY    60  34  38 CALM      29.49S
LAKE ELMO      CLOUDY    61  36  39 SE8       29.50S
$$
MNZ001>005-007-008-013>017-022>024-027-028-251100-
   Northwest Minnesota

CITY           SKY/WX    TMP DP  RH WIND       PRES   REMARKS
BEMIDJI        CLOUDY    37  37  98 N9        29.60R
HALLOCK        CLOUDY    30  28  93 N16       29.77R WCI  19
ROSEAU         CLOUDY    30  27  86 N14       29.73R WCI  20
WARROAD        CLOUDY    30  27  86 N13       29.72R WCI  20
THIEF RVR FALL CLOUDY    31  30  96 N20       29.70R FOG     WCI  19
CROOKSTON      CLOUDY    32  30  93 N16G24    29.71R WCI  21
FOSSTON        CLOUDY    32  32 100 N16       29.65R FOG     WCI  21
DETROIT LAKES  CLOUDY    36  36 100 N20       29.61R FOG
MOORHEAD       CLOUDY    32  30  93 N24G31    29.67R WCI  19
PARK RAPIDS    CLOUDY    42  37  82 N10       29.56R
MAHNOMEN       CLOUDY    34  33  98 N17       29.63R FOG     WCI  23
$$
MNZ006-009>011-018-025>026-251100-
   North Central Minnesota

CITY           SKY/WX    TMP DP  RH WIND       PRES   REMARKS
BAUDETTE       CLOUDY    32  30  92 N10       29.67R WCI  24
FLAG ISLAND    CLOUDY    30  27  86 NE20      29.72S WCI  18
INTL FALLS     CLOUDY    35  33  92 NE8       29.64S FOG     WCI  29
WASKISH        CLOUDY    36  34  93 N8        29.64R
BIG FORK       CLOUDY    37  36  93 N5        29.60S
LONGVILLE      CLOUDY    39  37  93 NW6       29.57R
GRAND RAPIDS   CLOUDY    38  35  89 CALM      29.57F
CRANE LAKE     CLOUDY    36  36 100 N3        29.64R
ORR            CLOUDY    36  34  93 CALM      29.58S
COOK           CLOUDY    37  36  93 CALM      29.58F
WALKER         CLOUDY    38  37  94 N6        29.58R
$$
MNZ012-019>021-037-251100-
   Northeast Minnesota

CITY           SKY/WX    TMP DP  RH WIND       PRES   REMARKS
DULUTH         CLOUDY    40  37  89 E6        29.57F
ELY            DRIZZLE   37  37 100 CALM      29.59S
HIBBING        LGT RAIN  37  37 100 CALM      29.57S
EVELETH        DRIZZLE   37  36  93 CALM      29.59S
DULUTH HARBOR  DRIZZLE   37  37 100 NE17      29.59F
TWO HARBORS    CLOUDY    45  39  81 NE7       29.57F
SILVER BAY     DRIZZLE   45  37  76 NE8       29.59F
GRAND MARAIS     N/A     41  37  86 VRB6      29.65R
G MARAIS ARPRT LGT RAIN  39  32  75 E7        29.65S
$$
MNZ029>031-032-039>041-046>048-054>057-064-251100-
   West Central Minnesota

CITY           SKY/WX    TMP DP  RH WIND       PRES   REMARKS
FERGUS FALLS   CLOUDY    34  34 100 N16G29    29.60R FOG     WCI  23
WHEATON        CLOUDY    34  34 100 NW17      29.65R FOG     WCI  23
MORRIS         CLOUDY    36  36 100 NW25      29.58R FOG
ALEXANDRIA     FOG       43  43 100 NW13      29.55R VSB 1/2
ELBOW LAKE     FOG       36  36 100 NW14G24   29.59R VSB 1
WADENA         CLOUDY    43  39  87 N9        29.55R
GLENWOOD       FOG       43  41  93 W13       29.54R VSB 3/4
APPLETON       CLOUDY    37  36  93 NW16G24   29.59S FOG
BENSON         CLOUDY    39  36  87 N18G25    29.59R FOG
ORTONVILLE     MIX PCPN  36  34  93 NW20      29.61S
MADISON        CLOUDY    39  39 100 NW17      29.60S FOG
WILLMAR        CLOUDY    41  41 100 NW14G20   29.56R FOG
$$
MNZ033>034-036-042>043-049>051-058-059-251100-
   Central Minnesota

CITY           SKY/WX    TMP DP  RH WIND       PRES   REMARKS
ST CLOUD       CLOUDY    53  45  74 E8        29.47S
SAUK CENTRE    CLOUDY    47  45  93 NW10      29.51R
PAYNESVILLE    FOG       44  44 100 W10       29.52R VSB 3/4
AITKIN         CLOUDY    41  36  81 NE6       29.52S
PINE RIVER     CLOUDY    39  39 100 N8        29.59R
BRAINERD       CLOUDY    41  39  93 NE8       29.53R
STAPLES        CLOUDY    41  39  93 N10       29.54R
LONG PRAIRIE   MOCLDY    45  43  93 W7        29.52R
LITTLE FALLS   CLOUDY    48  43  81 NE6       29.50S
LITCHFIELD     CLOUDY    46  45  93 NW10G16   29.51R FOG
BUFFALO        CLOUDY    57  37  47 S3        29.49R
MAPLE LAKE     CLOUDY    50  47  89 CALM      29.49R
HUTCHINSON     CLOUDY    45  44  98 W15       29.52R FOG
$$
MNZ037-044-045-052-053-251100-
   East Central Minnesota

CITY           SKY/WX    TMP DP  RH WIND       PRES   REMARKS
PRINCETON      MOCLDY    52  45  76 N3        29.49S
MORA           MOCLDY    43  36  75 NE3       29.52F
CAMBRIDGE      CLOUDY    55  43  62 CALM      29.48S
RUSH CITY      CLOUDY    46  41  81 N6        29.51R
MOOSE LAKE     LGT RAIN  36  34  93 NE7       29.53F
HINCKLEY       CLOUDY    43  37  81 NE7       29.52S
CLOQUET        CLOUDY    37  36  93 E7        29.57R
MCGREGOR       CLOUDY    37  36  93 E7        29.54S
$$
MNZ071>073-080-081-089-090-097-098-251100-
   Southwest Minnesota

CITY           SKY/WX    TMP DP  RH WIND       PRES   REMARKS
MONTEVIDEO     CLOUDY    37  37 100 N17       29.57F FOG
GRANITE FALLS  CLOUDY    40  39  97 NW20      29.58S FOG
CANBY          CLOUDY    38  37  97 NW16      29.60S FOG
MARSHALL       CLOUDY    37  36  96 NW18G25   29.57S FOG
REDWOOD FALLS  CLOUDY    40  37  89 NW8G18    29.54R
OLIVIA         FOG       39  37  93 NW15      29.54R VSB 1
PIPESTONE      CLOUDY    39  36  87 N10G20    29.56R HAZE
WINDOM         FOG       39  39 100 NW14      29.54R VSB 1/2
WORTHINGTON    CLOUDY    41  39  93 N15       29.55R
JACKSON        CLOUDY    41  39  93 N12       29.54R FOG
TRACY          CLOUDY    39  38  99 NW17      29.57R FOG
SLAYTON        FOG       37  37 100 NW13G21   29.56R VSB 1
$$
MNZ065>067-074>077-082>085-091>093-251100-
   South Central Minnesota

CITY           SKY/WX    TMP DP  RH WIND       PRES   REMARKS
MANKATO        MOCLDY    47  44  90 NW12      29.52R
NEW ULM        CLOUDY    43  39  87 NW12      29.53R
ST JAMES       CLOUDY    43  43 100 NW14      29.54R
FAIRMONT       CLOUDY    45  43  93 NW15      29.53R
GLENCOE        CLOUDY    47  47 100 W10       29.49R FOG
FARIBAULT      CLOUDY    61  36  39 S8        29.50S
OWATONNA       CLOUDY    57  34  41 SE12G21   29.50S
WASECA         CLOUDY    59  37  44 S10       29.50S
ALBERT LEA     MOCLDY    55  36  47 S6        29.51S
$$
MNZ078>079-086>088-094>096-251100-
   Southeast Minnesota

CITY           SKY/WX    TMP DP  RH WIND       PRES   REMARKS
ROCHESTER      CLOUDY    57  35  43 S12       29.54S
RED WING       CLOUDY    61  30  31 SE8       29.51S
STANTON        CLOUDY    61  34  36 S14       29.48
DODGE CENTER   CLOUDY    55  36  47 S10       29.52S
WINONA         CLOUDY    61  32  33 S8        29.55S
AUSTIN         CLOUDY    55  34  44 S7        29.53R
PRESTON        CLOUDY    55  32  41 S7        29.56R
$$
ABBREVIATIONS USED IN REMARKS
   TC - TEMPERATURES IN CELSIUS
  WCI - WIND CHILL INDEX
   HX - HEAT INDEX
  VSB - VISIBILITY
$$



USA.gov is the U.S. government's official web portal to all federal, state and local government web resources and services.